Flag for U.S.A. Weather past 2 weeks in Palo Alto, California, U.S.A.

Now
50 °F

Passing clouds.


Feels Like: 50 °F
Forecast: 45 / 61 °F
Wind: No wind

Location: Moffett Field

Current Time: Feb 28, 2015 at 7:51:21 PM

Latest Report: Feb 28, 2015 at 6:56 PM


Visibility: 10 mi

Pressure: 29.86 "Hg

Humidity: 80%

Dew point: 44 °F

Location of Palo AltoLocation

Historic Weather in Palo Alto — Graph

°F

Palo Alto temperature yesterday

Maximum temperature yesterday: 63 °F (at 12:03 PM)
Minimum temperature yesterday: 52 °F (at 11:56 PM)
Average temperature yesterday: 56 °F

Past Weeks' High & Low Weather Summary

 TemperatureHumidityPressure
High74 °F (Feb 15, 2:56 PM)90% (Feb 14, 6:56 AM)30.38 "Hg (Feb 14, 6:56 AM)
Low38 °F (Feb 24, 6:56 AM)17% (Feb 24, 11:56 AM)29.75 "Hg (Feb 28, 3:56 AM)
Average56 °F66%30.05 "Hg
* Reported Feb 13 6:56 PM — Feb 28 6:56 PM, Palo Alto, Weather by CustomWeather, © 2015

Note: Actual official high and low records may vary slightly from our data, if they occured in-between our weather recording intervals... More about our weather records

Advertising

Palo Alto weather history for previous 24 hours

 ConditionsComfort  
Time TempWeatherWind HumidityBarometerVisibility
6:56 PM
Sat, Feb 28
50 °FPassing clouds.No wind80%29.86 "Hg10 mi
5:56 PM52 °FLight rain. Mostly cloudy.No wind75%29.85 "Hg10 mi
4:56 PM53 °FPartly sunny.6 mph66%29.83 "Hg10 mi
3:56 PM55 °FPartly sunny.10 mph55%29.83 "Hg10 mi
2:56 PM59 °FSunny.5 mph56%29.80 "Hg10 mi
1:56 PM56 °FPartly sunny.6 mph62%29.80 "Hg10 mi
12:56 PM56 °FPartly sunny.6 mph60%29.81 "Hg10 mi
11:56 AM58 °FSunny.3 mph65%29.82 "Hg10 mi
10:56 AM53 °FLight rain. Mostly cloudy.6 mph77%29.83 "Hg10 mi
9:56 AM56 °FScattered clouds.5 mph67%29.81 "Hg10 mi
8:56 AM54 °FScattered clouds.3 mph69%29.80 "Hg10 mi
7:56 AM51 °FScattered clouds.No wind83%29.79 "Hg10 mi
6:56 AM48 °FSunny.3 mph83%29.77 "Hg10 mi
5:56 AM50 °FLight rain. Overcast.No wind80%29.77 "Hg7 mi
4:56 AM46 °FPassing clouds.3 mph79%29.76 "Hg10 mi
3:56 AM50 °FPassing clouds.5 mph74%29.75 "Hg10 mi
2:56 AM51 °FClear.No wind71%29.76 "Hg10 mi
1:56 AM51 °FClear.6 mph71%29.78 "Hg10 mi
12:56 AM52 °FClear.6 mph69%29.78 "Hg10 mi
11:56 PM
Fri, Feb 27
52 °FClear.6 mph69%29.78 "Hg10 mi
10:56 PM53 °FPassing clouds.7 mph66%29.79 "Hg10 mi
9:56 PM53 °FPassing clouds.5 mph64%29.80 "Hg10 mi
8:56 PM53 °FPassing clouds.10 mph66%29.80 "Hg10 mi
7:56 PM53 °FClear.7 mph69%29.79 "Hg10 mi
Weather by CustomWeather, © 2015

See weather overviewHow to use our weather pages